This demonstration page uses our WeatherBlox Daily Observations layout. Learn more.

Left ArrowRight Arrow

30.21309, -93.2044

Hourly Observations for June 29, 2019

Temp ( °F °C ) Dew Point ( °F °C ) Humidity (%) Winds ( mph kmh ) Pressure ( in mb ) Visibility ( mi km ) Precip ( " mm )
12:15 am 00:15 Clear 72 22.2 71 21.8 98 98 N 3 6 30.09 1019 10 16 0.00 0.00
12:35 am 00:35 Clear 72 22.1 71 21.7 98 98 NNE 3 6 30.09 1019 10 16 0.00 0.00
12:55 am 00:55 Clear 72 22.3 71 21.5 95 95 NNE 8 13 30.08 1019 10 16 0.00 0.00
1:15 am 01:15 Clear 73 22.6 70 21.3 92 92 E 7 11 30.07 1018 10 16 0.00 0.00
1:35 am 01:35 Clear 73 22.6 71 21.4 93 93 E 8 13 30.07 1018 10 16 0.00 0.00
1:55 am 01:55 Clear 73 22.6 71 21.7 95 95 N 5 7 30.06 1018 10 16 0.00 0.00
2:15 am 02:15 Clear 73 23 71 21.7 92 92 N 6 9 30.05 1018 10 16 0.00 0.00
2:35 am 02:35 Clear 73 22.5 71 21.7 95 95 Calm 30.06 1018 7 11 0.00 0.00
2:55 am 02:55 Mostly Cloudy 73 22.7 72 22 96 96 NNE 6 9 30.06 1018 10 16 0.00 0.00
3:15 am 03:15 Cloudy 73 22.8 72 22 95 95 NNE 5 7 30.07 1018 10 16 0.00 0.00
3:35 am 03:35 Mostly Cloudy 73 22.7 71 21.5 93 93 Calm 30.07 1018 10 16 0.00 0.00
3:55 am 03:55 Partly Cloudy 73 22.6 71 21.5 94 94 NNE 3 6 30.06 1018 10 16 0.00 0.00
4:15 am 04:15 Clear 73 22.5 71 21.6 95 95 N 3 6 30.06 1018 10 16 0.00 0.00
4:35 am 04:35 Clear 73 22.7 71 21.6 94 94 Calm 30.06 1018 10 16 0.00 0.00
4:55 am 04:55 Clear 73 22.5 71 21.7 95 95 NNE 7 11 30.06 1018 10 16 0.00 0.00
5:15 am 05:15 Clear 73 22.7 71 21.6 94 94 E 3 6 30.06 1018 10 16 0.00 0.00
5:35 am 05:35 Clear 73 22.5 71 21.6 95 95 NNE 9 15 30.07 1018 10 16 0.00 0.00
6:50 am 06:50 Cloudy with Thunderstorms 72 22 70 21 94 94 NE 15 24 30.15 1021 3 5 0.00 0.00
7:55 am 07:55 Cloudy 70 21 68 20 94 94 Calm 30.15 1021 7 11 0.00 0.00
8:45 am 08:45 Cloudy 70 21 68 20 94 94 E 6 9 30.13 1020 7 11 0.00 0.00
9:45 am 09:45 Mostly Cloudy 73 23 70 21 89 89 VRB 6 9 30.12 1020 10 16 0.00 0.00
10:55 am 10:55 Mostly Cloudy 72 22 86 30 100 100 VRB 6 9 30.12 1020 10 16 0.00 0.00
11:45 am 11:45 Cloudy 72 22 70 21 94 94 WSW 10 17 30.13 1020 10 16 0.00 0.00
12:45 pm 12:45 Cloudy 72 22 70 21 94 94 SW 7 11 30.13 1020 10 16 0.00 0.00
1:45 pm 13:45 Mostly Cloudy 72 22 70 21 94 94 NW 5 7 30.11 1020 10 16 0.00 0.00
2:55 pm 14:55 Mostly Cloudy 73 23 70 21 89 89 WSW 9 15 30.07 1018 10 16 0.00 0.00
3:50 pm 15:50 Mostly Cloudy 77 25 72 22 83 83 WSW 6 9 30.06 1018 10 16 0.00 0.00
4:50 pm 16:50 Mostly Cloudy 77 25 70 21 79 79 Calm 30.04 1017 10 16 0.00 0.00
5:50 pm 17:50 Partly Cloudy 79 26 70 21 74 74 Calm 30.02 1017 10 16 0.00 0.00
6:50 pm 18:50 Partly Cloudy 81 27 70 21 70 70 WSW 9 15 30.01 1016 10 16 0.00 0.00
7:50 pm 19:50 Partly Cloudy 77 25 70 21 79 79 VRB 6 9 30.02 1017 10 16 0.00 0.00
8:55 pm 20:55 Mostly Clear 75 24 70 21 83 83 Calm 30.02 1017 10 16 0.00 0.00
9:50 pm 21:50 Mostly Clear 75 24 70 21 83 83 Calm 30.03 1017 10 16 0.00 0.00
10:15 pm 22:15 Clear 73 23 70 21.2 90 90 NNW 3 6 30.04 1017 10 16 0.00 0.00
10:35 pm 22:35 Clear 73 23 70 21.1 89 89 Calm 30.04 1017 10 16 0.00 0.00
10:55 pm 22:55 Clear 73 22.5 70 21.2 92 92 Calm 30.05 1018 10 16 0.01 0.25
11:15 pm 23:15 Clear 72 22.3 70 21.2 94 94 Calm 30.05 1018 10 16 0.00 0.00
11:35 pm 23:35 Clear 72 22.4 70 21.3 94 94 N 6 9 30.06 1018 10 16 0.00 0.00
11:55 pm 23:55 Clear 73 22.7 70 21.3 92 92 N 6 9 30.06 1018 10 16 0.00 0.00

Powered by AerisWeather